Location: College Park
(38.9810°N, 76.9370°W)
Time: 10:51:50
(UTC-05:00)

Tiangong 2 - Pass Details

Date: 17 February 2018
Orbit: 384 x 389 km, 42.8° (Epoch: 24 February)

Event Time Altitude Azimuth Distance (km) Brightness Sun altitude
Rises 19:41:14 0° 289° (WNW) 2,264 6.3 -22.7°
Reaches altitude 10° 19:43:21 10° 294° (WNW) 1,408 4.9 -23.1°
Enters shadow 19:45:13 31° 309° (NW) 707 2.8 -23.5°
